Location: Unspecified
(0.0000°N, 0.0000°E)
Time: 13:39:55
(UTC+00:00)

Courier 1B - Pass Details

Date: 23 November 2019
Orbit: 963 x 1209 km, 28.3° (Epoch: 08 December)

Event Time Altitude Azimuth Distance (km) Brightness Sun altitude
Rises 21:44:04 0° 220° (SW) 4,059 11.3 -53.8°
Reaches altitude 10° 21:47:24 10° 209° (SSW) 3,119 10.5 -54.4°
Enters shadow 21:47:38 11° 207° (SSW) 3,060 10.4 -54.5°
